When you browse on this site, cookies collect data to enhance your experience and personalize the content and advertising you see.
Visit our Privacy Policy to learn more. By continuing to use the site, you agree to this use of cookies and data.
  • In Romania
  • List of Countries
  • For 7 days
  • Water Temperature
  • Satellite Maps
  • Weather Map
  • Weather Widgets
  • user-avatar
    Login

    Hourly Weather Lourdes

    Today, 16 June, Sunday

    Time Temperature Precipitation Wind Pressure Humidity
    00:00 +10°C° 0 mm 1 mps 700 mmHg 92%
    01:00 +10°C° 0 mm 1 mps 700 mmHg 91%
    02:00 +9°C° 0 mm 1 mps 699 mmHg 90%
    03:00 +9°C° 0 mm 1 mps 699 mmHg 88%
    04:00 +10°C° 0 mm 1 mps 699 mmHg 85%
    05:00 +11°C° 0 mm 1 mps 699 mmHg 81%
    06:00 +12°C° 0 mm 1 mps 700 mmHg 77%
    07:00 +14°C° 0 mm 1 mps 700 mmHg 72%
    08:00 +16°C° 0 mm 2 mps 700 mmHg 66%
    09:00 +18°C° 0 mm 2 mps 700 mmHg 60%
    10:00 +19°C° 0 mm 2 mps 700 mmHg 59%
    11:00 +20°C° 0 mm 3 mps 700 mmHg 58%
    12:00 +21°C° 0 mm 3 mps 700 mmHg 56%
    13:00 +21°C° 0 mm 3 mps 699 mmHg 57%
    14:00 +22°C° 0 mm 3 mps 699 mmHg 58%
    15:00 +22°C° 0 mm 3 mps 698 mmHg 59%
    16:00 +21°C° 0 mm 2 mps 698 mmHg 65%
    17:00 +20°C° 0 mm 2 mps 698 mmHg 70%
    18:00 +20°C° 0 mm 1 mps 698 mmHg 76%
    19:00 +19°C° 0 mm 1 mps 698 mmHg 79%
    20:00 +16°C° 0 mm 1 mps 698 mmHg 82%
    21:00 +15°C° 0 mm 1 mps 698 mmHg 86%
    22:00 +14°C° 0 mm 1 mps 698 mmHg 83%
    23:00 +14°C° 0 mm 1 mps 698 mmHg 80%

    Tomorrow, 17 June, Monday

    Time Temperature Precipitation Wind Pressure Humidity
    00:00 +14°C° 0 mm 1 mps 697 mmHg 76%
    01:00 +14°C° 0 mm 1 mps 697 mmHg 73%
    02:00 +14°C° 0 mm 1 mps 697 mmHg 71%
    03:00 +14°C° 0 mm 1 mps 697 mmHg 68%
    04:00 +14°C° 0 mm 1 mps 697 mmHg 68%
    05:00 +15°C° 0 mm 1 mps 697 mmHg 68%
    06:00 +16°C° 0 mm 1 mps 698 mmHg 68%
    07:00 +19°C° 0 mm 1 mps 698 mmHg 63%
    08:00 +21°C° 0 mm 1 mps 698 mmHg 58%
    09:00 +23°C° 0 mm 1 mps 699 mmHg 53%
    10:00 +24°C° 0 mm 2 mps 698 mmHg 53%
    11:00 +25°C° 0 mm 2 mps 698 mmHg 52%
    12:00 +25°C° 0 mm 2 mps 698 mmHg 52%
    13:00 +25°C° 0.3 mm 2 mps 698 mmHg 53%
    14:00 +26°C° 0.3 mm 2 mps 697 mmHg 53%
    15:00 +26°C° 0.3 mm 2 mps 697 mmHg 54%
    16:00 +25°C° 0.2 mm 2 mps 696 mmHg 60%
    17:00 +24°C° 0.2 mm 2 mps 696 mmHg 67%
    18:00 +23°C° 0.2 mm 1 mps 696 mmHg 73%
    19:00 +20°C° 0 mm 2 mps 696 mmHg 73%
    20:00 +19°C° 0 mm 2 mps 696 mmHg 73%
    21:00 +17°C° 0 mm 3 mps 696 mmHg 73%
    22:00 +17°C° 0 mm 3 mps 696 mmHg 68%
    23:00 +18°C° 0 mm 3 mps 696 mmHg 62%

    Day after tomorrow, 18 June, Tuesday

    Time Temperature Precipitation Wind Pressure Humidity
    00:00 +18°C° 0 mm 3 mps 696 mmHg 57%
    01:00 +18°C° 0 mm 3 mps 696 mmHg 55%
    02:00 +18°C° 0 mm 3 mps 695 mmHg 54%
    03:00 +18°C° 0 mm 3 mps 695 mmHg 53%
    04:00 +18°C° 0 mm 2 mps 695 mmHg 56%
    05:00 +18°C° 0 mm 2 mps 695 mmHg 59%
    06:00 +18°C° 0 mm 2 mps 695 mmHg 63%
    07:00 +21°C° 0 mm 2 mps 695 mmHg 57%
    08:00 +24°C° 0 mm 2 mps 696 mmHg 51%
    09:00 +26°C° 0 mm 1 mps 696 mmHg 44%
    10:00 +27°C° 0 mm 2 mps 696 mmHg 43%
    11:00 +28°C° 0 mm 2 mps 696 mmHg 41%
    12:00 +29°C° 0 mm 2 mps 696 mmHg 40%
    13:00 +29°C° 0 mm 2 mps 695 mmHg 40%
    14:00 +29°C° 0 mm 2 mps 695 mmHg 41%
    15:00 +29°C° 0 mm 1 mps 694 mmHg 42%
    16:00 +28°C° 0 mm 1 mps 694 mmHg 49%
    17:00 +28°C° 0 mm 1 mps 694 mmHg 55%
    18:00 +27°C° 0 mm 1 mps 694 mmHg 62%
    19:00 +25°C° 0 mm 2 mps 694 mmHg 59%
    20:00 +22°C° 0 mm 3 mps 694 mmHg 56%
    21:00 +21°C° 0 mm 3 mps 694 mmHg 53%
    22:00 +20°C° 0 mm 4 mps 694 mmHg 49%
    23:00 +20°C° 0 mm 4 mps 694 mmHg 46%

    19 June, Wednesday

    Time Temperature Precipitation Wind Pressure Humidity
    00:00 +19°C° 0 mm 4 mps 694 mmHg 42%
    01:00 +18°C° 0 mm 4 mps 694 mmHg 52%
    02:00 +16°C° 0 mm 3 mps 694 mmHg 61%
    03:00 +14°C° 0 mm 3 mps 694 mmHg 70%
    04:00 +15°C° 0 mm 2 mps 694 mmHg 71%
    05:00 +16°C° 0 mm 2 mps 695 mmHg 73%
    06:00 +16°C° 0 mm 1 mps 695 mmHg 74%
    07:00 +19°C° 0 mm 1 mps 695 mmHg 67%
    08:00 +21°C° 0 mm 1 mps 696 mmHg 61%
    09:00 +23°C° 0 mm 1 mps 696 mmHg 55%
    10:00 +24°C° 0 mm 1 mps 696 mmHg 52%
    11:00 +24°C° 0 mm 2 mps 696 mmHg 50%
    12:00 +25°C° 0 mm 2 mps 696 mmHg 48%
    13:00 +25°C° 0 mm 2 mps 696 mmHg 49%
    14:00 +25°C° 0 mm 2 mps 695 mmHg 49%
    15:00 +25°C° 0 mm 2 mps 695 mmHg 50%
    16:00 +24°C° 0.1 mm 2 mps 695 mmHg 58%
    17:00 +24°C° 0.1 mm 2 mps 695 mmHg 66%
    18:00 +23°C° 0.1 mm 1 mps 695 mmHg 74%
    19:00 +21°C° 0 mm 1 mps 695 mmHg 78%
    20:00 +19°C° 0 mm 1 mps 695 mmHg 82%
    21:00 +16°C° 0 mm 1 mps 695 mmHg 87%
    22:00 +16°C° 0.1 mm 1 mps 695 mmHg 85%
    23:00 +16°C° 0.1 mm 1 mps 695 mmHg 84%

    20 June, Thursday

    Time Temperature Precipitation Wind Pressure Humidity
    00:00 +15°C° 0.1 mm 2 mps 695 mmHg 83%
    01:00 +15°C° 0 mm 2 mps 695 mmHg 84%
    02:00 +14°C° 0 mm 1 mps 695 mmHg 84%
    03:00 +14°C° 0 mm 1 mps 695 mmHg 85%
    04:00 +15°C° 0 mm 1 mps 695 mmHg 84%
    05:00 +15°C° 0 mm 1 mps 695 mmHg 83%
    06:00 +16°C° 0 mm 1 mps 695 mmHg 83%
    07:00 +18°C° 0 mm 1 mps 696 mmHg 79%
    08:00 +20°C° 0 mm 1 mps 696 mmHg 75%
    09:00 +21°C° 0 mm 1 mps 696 mmHg 72%
    10:00 +20°C° 0.1 mm 2 mps 696 mmHg 74%
    11:00 +20°C° 0.1 mm 2 mps 696 mmHg 75%
    12:00 +20°C° 0.1 mm 3 mps 696 mmHg 77%
    13:00 +19°C° 0.2 mm 2 mps 695 mmHg 80%
    14:00 +19°C° 0.2 mm 2 mps 695 mmHg 84%
    15:00 +18°C° 0.2 mm 2 mps 695 mmHg 87%
    16:00 +18°C° 0.2 mm 2 mps 695 mmHg 89%
    17:00 +18°C° 0.2 mm 1 mps 695 mmHg 91%
    18:00 +18°C° 0.2 mm 1 mps 695 mmHg 93%
    19:00 +16°C° 1.6 mm 1 mps 696 mmHg 95%
    20:00 +16°C° 1.6 mm 1 mps 696 mmHg 97%
    21:00 +15°C° 1.6 mm 1 mps 696 mmHg 98%
    22:00 +15°C° 0.5 mm 1 mps 697 mmHg 98%
    23:00 +15°C° 0.5 mm 1 mps 697 mmHg 98%

    21 June, Friday

    Time Temperature Precipitation Wind Pressure Humidity
    00:00 +15°C° 0.5 mm 1 mps 697 mmHg 98%
    01:00 +14°C° 0.1 mm 1 mps 697 mmHg 99%
    02:00 +14°C° 0.1 mm 1 mps 696 mmHg 99%
    03:00 +13°C° 0.1 mm 0 mps 696 mmHg 99%
    04:00 +13°C° 0.1 mm 0 mps 696 mmHg 98%
    05:00 +13°C° 0.1 mm 0 mps 697 mmHg 98%
    06:00 +14°C° 0.1 mm 1 mps 697 mmHg 98%
    07:00 +15°C° 0.1 mm 1 mps 697 mmHg 97%
    08:00 +15°C° 0.1 mm 1 mps 697 mmHg 97%
    09:00 +15°C° 0.1 mm 1 mps 697 mmHg 96%
    10:00 +15°C° 0.1 mm 1 mps 697 mmHg 95%
    11:00 +16°C° 0.1 mm 1 mps 697 mmHg 94%
    12:00 +16°C° 0.1 mm 1 mps 697 mmHg 92%
    13:00 +16°C° 0.4 mm 1 mps 696 mmHg 93%
    14:00 +16°C° 0.4 mm 1 mps 696 mmHg 94%
    15:00 +16°C° 0.4 mm 1 mps 696 mmHg 95%
    16:00 +16°C° 0.4 mm 1 mps 696 mmHg 96%
    17:00 +16°C° 0.4 mm 1 mps 696 mmHg 96%
    18:00 +16°C° 0.4 mm 1 mps 696 mmHg 97%
    19:00 +15°C° 0 mm 1 mps 696 mmHg 97%
    20:00 +15°C° 0 mm 1 mps 697 mmHg 98%
    21:00 +15°C° 0 mm 1 mps 697 mmHg 98%
    22:00 +15°C° 0 mm 1 mps 697 mmHg 98%
    23:00 +14°C° 0 mm 1 mps 697 mmHg 98%
    Show more